Location: Karlsruhe
(49.0131°N, 8.3874°E)
Time: 03:27:08
(UTC+01:00)

ISS - Pass Details

Date: 07 January 2018
Orbit: 402 x 407 km, 51.6° (Epoch: 22 January)

Event Time Altitude Azimuth Distance (km) Brightness Sun altitude
Exits shadow 07:28:44 11° 290° (WNW) 1,414 -1.8 -8.1°
Maximum altitude 07:31:54 80° 17° (NNE) 418 -3.8 -7.6°
Drops below altitude 10° 07:35:11 10° 106° (ESE) 1,468 0.7 -7.1°
Sets 07:37:16 0° 107° (ESE) 2,328 2.3 -6.8°
